Date String (YYYY-MM-DD hh:mm:ss) UTC,Instrument flags,Ambient pressure (hPa),Sample flow (lpm),Bypass flow (lpm),Sample temperature (°C),Ambient temperature (°C),ASC tube jacket temperature (°C),LED temperature (°C),Box temperature (°C),Sample RH (%),Span deviation,Mass concentration (μg/m³),Mass concentration (μg/m³),Mass concentration (μg/m³)
DateTimeUTC,F1_M11,P_M11,Q1_M11,Q2_M11,T1_M11,T2_M11,T3_M11,T4_M11,T5_M11,U1_M11,ZSPAN_M11,X0_M11,X2_M11,X1_M11
2022-03-03 05:00:00,,0828.3,4.99,0.00,29.4,28.6,00.0,38.5,31.1,09.3,0000.0,0007.02,0002.88,0002.28
2022-03-03 05:01:00,,0828.3,5.00,0.00,29.4,28.6,00.0,38.5,31.0,09.1,0000.0,0007.64,0002.72,0002.13
2022-03-03 05:02:00,,0828.3,4.99,0.00,29.4,28.6,00.0,38.5,31.1,09.2,0000.0,0007.41,0002.47,0001.94
2022-03-03 05:03:00,,0828.3,5.01,0.00,29.4,28.6,00.0,38.5,31.1,09.2,0000.0,0006.50,0002.24,0001.78
2022-03-03 05:04:00,,0828.3,5.00,0.00,29.4,28.6,00.0,38.5,31.0,09.1,0000.0,0006.53,0002.05,0001.59
2022-03-03 05:05:00,,0828.3,4.99,0.00,29.3,28.5,00.0,38.4,31.0,08.8,0000.0,0006.56,0001.84,0001.44
2022-03-03 05:06:00,,0828.3,5.01,0.00,29.3,28.5,00.0,38.4,31.0,09.1,0000.0,0006.16,0001.68,0001.32
2022-03-03 05:07:00,,0828.3,5.00,0.00,29.3,28.5,00.0,38.4,31.0,09.1,0000.0,0005.39,0001.60,0001.23
2022-03-03 05:08:00,,0828.3,4.99,0.00,29.3,28.5,00.0,38.4,31.0,09.2,0000.0,0004.84,0001.55,0001.14
2022-03-03 05:09:00,,0828.4,5.00,0.00,29.3,28.5,00.0,38.4,31.0,09.1,0000.0,0005.05,0001.49,0001.07
2022-03-03 05:10:00,,0828.3,5.01,0.00,29.3,28.5,00.0,38.4,31.0,09.0,0000.0,0005.09,0001.48,0001.04
2022-03-03 05:11:00,,0828.3,5.00,0.00,29.3,28.5,00.0,38.4,31.0,08.9,0000.0,0005.09,0001.48,0001.03
2022-03-03 05:12:00,,0828.3,5.00,0.00,29.3,28.5,00.0,38.4,31.0,08.8,0000.0,0004.09,0001.45,0001.02
2022-03-03 05:13:00,,0828.3,4.99,0.00,29.3,28.5,00.0,38.4,30.9,08.8,0000.0,0003.85,0001.44,0001.00
2022-03-03 05:14:00,,0828.3,4.99,0.00,29.3,28.4,00.0,38.4,30.9,08.7,0000.0,0004.06,0001.42,0000.98
2022-03-03 05:15:00,,0828.3,5.00,0.00,29.3,28.4,00.0,38.4,30.9,08.8,0000.0,0004.61,0001.40,0000.96
2022-03-03 05:16:00,,0828.4,5.02,0.00,29.2,28.4,00.0,38.4,30.9,08.9,0000.0,0004.53,0001.38,0000.95
2022-03-03 05:17:00,,0828.3,5.00,0.00,29.2,28.4,00.0,38.3,30.9,08.9,0000.0,0004.87,0001.37,0000.93
2022-03-03 05:18:00,,0828.3,4.99,0.00,29.2,28.4,00.0,38.3,30.9,09.0,0000.0,0004.83,0001.35,0000.93
2022-03-03 05:19:00,,0828.3,4.99,0.00,29.2,28.4,00.0,38.3,30.9,09.0,0000.0,0004.40,0001.30,0000.94
2022-03-03 05:20:00,,0828.3,5.00,0.00,29.2,28.4,00.0,38.3,30.9,09.0,0000.0,0004.03,0001.28,0000.94
2022-03-03 05:21:00,,0828.3,5.01,0.00,29.2,28.4,00.0,38.3,30.9,09.0,0000.0,0003.96,0001.30,0000.94
2022-03-03 05:22:00,,0828.3,5.02,0.00,29.2,28.4,00.0,38.3,30.9,09.1,0000.0,0003.84,0001.26,0000.94
2022-03-03 05:23:00,,0828.3,4.99,0.00,29.2,28.4,00.0,38.3,30.9,09.2,0000.0,0005.18,0001.29,0000.92
2022-03-03 05:24:00,,0828.3,4.99,0.00,29.2,28.3,00.0,38.3,30.9,09.4,0000.0,0005.49,0001.26,0000.92
2022-03-03 05:25:00,,0828.3,5.00,0.00,29.2,28.3,00.0,38.3,30.9,09.6,0000.0,0005.47,0001.24,0000.92
2022-03-03 05:26:00,,0828.3,5.00,0.00,29.2,28.3,00.0,38.3,30.8,09.8,0000.0,0004.58,0001.23,0000.91
2022-03-03 05:27:00,,0828.3,5.01,0.00,29.2,28.3,00.0,38.3,30.8,09.9,0000.0,0004.28,0001.22,0000.89
2022-03-03 05:28:00,,0828.3,5.00,0.00,29.2,28.3,00.0,38.3,30.8,10.0,0000.0,0003.71,0001.22,0000.88
2022-03-03 05:29:00,,0828.3,4.99,0.00,29.1,28.3,00.0,38.3,30.8,10.1,0000.0,0003.75,0001.24,0000.88
2022-03-03 05:30:00,,0828.3,5.00,0.00,29.1,28.3,00.0,38.3,30.8,10.1,0000.0,0003.85,0001.24,0000.87
2022-03-03 05:31:00,,0828.3,5.01,0.00,29.1,28.3,00.0,38.2,30.8,10.1,0000.0,0003.99,0001.26,0000.86
2022-03-03 05:32:00,,0828.3,5.01,0.00,29.1,28.3,00.0,38.2,30.8,10.1,0000.0,0003.97,0001.23,0000.85
2022-03-03 05:33:00,,0828.3,4.99,0.00,29.1,28.3,00.0,38.2,30.8,10.0,0000.0,0003.99,0001.20,0000.83
2022-03-03 05:34:00,,0828.3,5.01,0.00,29.1,28.3,00.0,38.2,30.8,09.8,0000.0,0003.16,0001.17,0000.82
2022-03-03 05:35:00,,0828.3,5.00,0.00,29.1,28.3,00.0,38.2,30.8,09.7,0000.0,0002.22,0001.16,0000.80
2022-03-03 05:36:00,,0828.3,5.00,0.00,29.1,28.3,00.0,38.2,30.8,09.4,0000.0,0002.26,0001.18,0000.79
2022-03-03 05:37:00,,0828.3,5.00,0.00,29.1,28.3,00.0,38.2,30.8,09.3,0000.0,0002.30,0001.19,0000.78
2022-03-03 05:38:00,,0828.3,4.99,0.00,29.1,28.3,00.0,38.2,30.8,09.3,0000.0,0002.39,0001.23,0000.78
2022-03-03 05:39:00,,0828.3,5.00,0.00,29.1,28.3,00.0,38.2,30.8,09.3,0000.0,0002.46,0001.25,0000.78
2022-03-03 05:40:00,,0828.3,5.01,0.00,29.1,28.3,00.0,38.2,30.8,09.2,0000.0,0002.52,0001.24,0000.78
2022-03-03 05:41:00,,0828.3,4.99,0.00,29.1,28.3,00.0,38.2,30.8,09.2,0000.0,0002.48,0001.23,0000.77
2022-03-03 05:42:00,,0828.3,4.99,0.00,29.1,28.3,00.0,38.2,30.8,09.3,0000.0,0002.32,0001.21,0000.76
2022-03-03 05:43:00,,0828.3,5.01,0.00,29.1,28.3,00.0,38.1,30.8,09.3,0000.0,0002.58,0001.24,0000.75
2022-03-03 05:44:00,,0828.3,5.02,0.00,29.1,28.3,00.0,38.1,30.8,09.4,0000.0,0002.58,0001.24,0000.74
2022-03-03 05:45:00,,0828.3,4.99,0.00,29.0,28.3,00.0,38.1,30.8,09.4,0000.0,0002.52,0001.21,0000.73
2022-03-03 05:46:00,,0828.3,4.99,0.00,29.0,28.3,00.0,38.1,30.7,09.4,0000.0,0002.46,0001.18,0000.72
2022-03-03 05:47:00,,0828.3,5.02,0.00,29.0,28.2,00.0,38.1,30.8,09.5,0000.0,0002.50,0001.17,0000.73
2022-03-03 05:48:00,,0828.3,4.99,0.00,29.0,28.2,00.0,38.1,30.7,09.7,0000.0,0002.55,0001.15,0000.72
2022-03-03 05:49:00,,0828.3,4.99,0.00,29.0,28.2,00.0,38.1,30.7,09.5,0000.0,0002.49,0001.11,0000.71
2022-03-03 05:50:00,,0828.3,5.02,0.00,29.0,28.2,00.0,38.1,30.7,09.5,0000.0,0002.35,0001.07,0000.70
2022-03-03 05:51:00,,0828.3,5.00,0.00,29.0,28.2,00.0,38.1,30.7,09.4,0000.0,0002.24,0001.04,0000.69
2022-03-03 05:52:00,,0828.3,5.00,0.00,29.0,28.2,00.0,38.1,30.7,09.5,0000.0,0003.16,0001.04,0000.68
2022-03-03 05:53:00,,0828.3,5.00,0.00,29.0,28.2,00.0,38.1,30.7,09.5,0000.0,0003.51,0001.05,0000.69
2022-03-03 05:54:00,,0828.3,5.00,0.00,29.0,28.1,00.0,38.1,30.7,09.5,0000.0,0003.27,0001.01,0000.69
2022-03-03 05:55:00,,0828.3,5.02,0.00,29.0,28.1,00.0,38.1,30.7,09.6,0000.0,0003.32,0001.06,0000.69
2022-03-03 05:56:00,,0828.3,4.99,0.00,29.0,28.1,00.0,38.1,30.7,09.6,0000.0,0003.70,0001.10,0000.70
2022-03-03 05:57:00,,0828.3,4.99,0.00,29.0,28.1,00.0,38.1,30.7,09.5,0000.0,0004.21,0001.12,0000.71
2022-03-03 05:58:00,,0828.2,5.00,0.00,29.0,28.1,00.0,38.0,30.7,09.5,0000.0,0004.31,0001.16,0000.71
2022-03-03 05:59:00,,0828.3,5.00,0.00,28.9,28.1,00.0,38.0,30.7,09.5,0000.0,0004.31,0001.16,0000.72
